User: anonymous   Login
Location: *
(12.5665°N, 8.3471°E)
Time: 05:39:56
(UTC+00:00)
Language:

COSMO-SKYMED 1 - Orbit

View from above orbital plane
View from above orbital plane
View from above satellite
View from above satellite

Ground track
Ground track

The orbit data is extracted from the following two-line orbital elements,

1 31598U 07023A   19322.76484310  .00000181  00000-0  29329-4 0  9997
2 31598  97.8877 143.9995 0001243  82.9164 277.2189 14.82157663673470
Epoch (UTC): 18 November 2019 18:21:22
Eccentricity: 0.0001243
inclination: 97.8877°
perigee height: 621 km
apogee height: 623 km
right ascension of ascending node: 143.9995°
argument of perigee: 82.9164°
revolutions per day: 14.82157663
mean anomaly at epoch: 277.2189°
orbit number at epoch: 67347

The dashed part of the orbit path shows where the satellite is in the earth's shadow,  

DLR